Bookmark and Share
Track history (hours):
 

Nicole Leigh Reinauer

More information available from US FCC via Universal Licensing System and Coast Guard Vessel Documentation Center.

Last reported at 2014-Apr-22 22:31 UTC. Time now 2014-Apr-23 15:44 UTC.
Position N 29°60' W 090°25'.

Length 167 m; draft 8 m.

Type: Wing in ground effect craft. MMSI: 366774330.

NotesDate/timePositionNaut miles runAvg speedWind from/ knotsBaromVisibWave heightAir tempDewpointWater temp
2014-Apr-22 22:31N 29°60' W 090°25'0 0.0
2014-Apr-22 12:28N 29°60' W 090°25'0 0.0
2014-Apr-22 11:31N 29°60' W 090°25'0 0.0
2014-Apr-22 10:25N 29°60' W 090°25'0 0.0
2014-Apr-22 09:31N 29°60' W 090°25'0 0.0
2014-Apr-22 08:31N 29°60' W 090°25'0 0.0
2014-Apr-22 07:31N 29°60' W 090°25'0 0.0
2014-Apr-22 06:31N 29°60' W 090°25'0 0.0
2014-Apr-22 05:28N 29°60' W 090°25'0 0.0
2014-Apr-22 04:31N 29°60' W 090°25'0 0.0
2014-Apr-22 03:31N 29°60' W 090°25'1 1.1
2014-Apr-22 02:33N 29°59' W 090°24'5 5.3
2014-Apr-22 01:32N 29°58' W 090°18'  
2014-Apr-18 19:23N 25°31' W 080°03'6 7.3
2014-Apr-18 18:33N 25°37' W 080°03'8 7.6
2014-Apr-18 17:33N 25°44' W 080°04'3 2.9
2014-Apr-18 16:33N 25°47' W 080°05'0 0.1
2014-Apr-18 15:33N 25°47' W 080°06'0 0.0
2014-Apr-18 14:33N 25°47' W 080°06'0 0.0
2014-Apr-18 13:33N 25°47' W 080°06'0 0.0
2014-Apr-18 12:33N 25°47' W 080°06'0 0.0
2014-Apr-18 11:33N 25°47' W 080°06'0 0.1
2014-Apr-18 10:33N 25°47' W 080°06'0 0.1
2014-Apr-18 09:33N 25°47' W 080°06'0 0.2
2014-Apr-18 08:33N 25°47' W 080°06'7 7.1
2014-Apr-18 07:33N 25°41' W 080°02'1111.1
2014-Apr-18 06:33N 25°30' W 080°03'1 0.3
2014-Apr-18 03:33N 25°31' W 080°03'7 7.1
2014-Apr-18 02:33N 25°38' W 080°03'7 7.2
2014-Apr-18 01:33N 25°45' W 080°02'8 7.8
2014-Apr-18 00:33N 25°53' W 080°02'1010.0
2014-Apr-17 23:33N 26°03' W 080°01'1111.0
2014-Apr-17 22:33N 26°14' W 080°00'1010.3
2014-Apr-17 21:33N 26°24' W 079°59'10 9.9
2014-Apr-17 20:33N 26°34' W 079°59'11 9.4
2014-Apr-17 19:22N 26°45' W 079°58'10 8.9
2014-Apr-17 18:12N 26°55' W 079°60'710.3
2014-Apr-17 17:33N 27°02' W 080°01'1111.0
2014-Apr-17 16:33N 27°13' W 080°02'  
2014-Apr-13 11:12N 36°41' W 075°35'1810.6
2014-Apr-13 09:30N 36°59' W 075°32'1010.9
2014-Apr-13 08:33N 37°09' W 075°30'1410.9
2014-Apr-13 07:14N 37°23' W 075°27'710.8
2014-Apr-13 06:33N 37°30' W 075°25'7510.7
2014-Apr-12 23:33N 38°36' W 074°39'  

Dump ship's entire track history

sailing weather and tide predictions

Nicole Leigh Reinauer — WCZ5696 — position and weather